Steamboat Springs, CO

4:21 AM MDT on May 24, 2018 (GMT -0600)
Steamboat Springs-Adams

Weather History for KSBS - September, 2012

Change the Weather History Date:

Thursday, September 13, 2012

  Actual Average Record
Temperature  
Mean Temperature 53 °F -  
Max Temperature 73 °F 71 °F 87 °F (1990)
Min Temperature 33 °F 33 °F 18 °F (1945)
Degree Days  
Heating Degree Days 12    
Growing Degree Days 3 (Base 50)    
Moisture  
Dew Point 22 °F    
Average Humidity 39    
Maximum Humidity 84    
Minimum Humidity 7    
Precipitation  
Precipitation 0.00 in - - ()
Sea Level Pressure  
Sea Level Pressure 30.48 in    
Wind  
Wind Speed 1 mph (SW)    
Max Wind Speed 12 mph    
Max Gust Speed -    
Visibility 10 miles    
Events      
Averages and records for this station are not official NWS values.
T = Trace of Precipitation, MM = Missing Value Source: NWS Daily Summary

Daily Weather History Graph

Daily Weather History Graph

Search for Another Location

Airport or City:

Astronomy

Sep. 13, 2012 Rise Set
Actual Time 6:46 AM MDT 7:18 PM MDT
Civil Twilight 6:19 AM MDT 7:46 PM MDT
Nautical Twilight 5:46 AM MDT 8:18 PM MDT
Astronomical Twilight 5:13 AM MDT 8:51 PM MDT
Moon 4:08 AM MDT (9/13) 5:43 PM MDT (9/13)
Length of Visible Light 13h 26m
Length of Day
12h 32m
Waning Crescent, 7% of the Moon is Illuminated
Sep 13
Waning Crescent
Sep 15
New
Sep 22
First Quarter
Sep 29
Full
Oct 8
Last Quarter

Hourly Weather History & Observations

Time (MDT) Temp. Dew Point Humidity Pressure Visibility Wind Dir Wind Speed Gust Speed Precip Events Conditions
12:13 AM 44.4 °F 26.6 °F 50% 30.39 in 10.0 mi Calm Calm - N/A   Clear
12:33 AM 42.3 °F 27.5 °F 56% 30.40 in 10.0 mi Calm Calm - N/A   Clear
12:53 AM 41.2 °F 29.5 °F 63% 30.41 in 10.0 mi Calm Calm - N/A   Clear
1:13 AM 45.0 °F 27.1 °F 50% 30.42 in 10.0 mi Calm Calm - N/A   Clear
1:33 AM 42.6 °F 28.9 °F 58% 30.42 in 10.0 mi Calm Calm - N/A   Clear
1:53 AM 42.1 °F 28.0 °F 58% 30.42 in 10.0 mi Calm Calm - N/A   Clear
2:13 AM 42.1 °F 27.5 °F 56% 30.42 in 10.0 mi Calm Calm - N/A   Clear
2:33 AM 40.5 °F 27.9 °F 61% 30.43 in 10.0 mi Calm Calm - N/A   Clear
2:53 AM 40.3 °F 27.7 °F 61% 30.44 in 10.0 mi Calm Calm - N/A   Clear
3:13 AM 37.8 °F 30.4 °F 75% 30.44 in 10.0 mi Calm Calm - N/A   Clear
3:33 AM 38.7 °F 28.8 °F 68% 30.45 in 10.0 mi Calm Calm - N/A   Clear
3:53 AM 38.7 °F 28.6 °F 67% 30.45 in 10.0 mi Calm Calm - N/A   Clear
4:13 AM 38.8 °F 28.4 °F 66% 30.45 in 10.0 mi Calm Calm - N/A   Clear
4:33 AM 38.8 °F 28.8 °F 67% 30.45 in 10.0 mi Calm Calm - N/A   Clear
4:53 AM 36.0 °F 28.9 °F 76% 30.46 in 10.0 mi Calm Calm - N/A   Clear
5:13 AM 36.0 °F 29.3 °F 77% 30.47 in 10.0 mi Calm Calm - N/A   Clear
5:53 AM 34.7 °F 29.7 °F 82% 30.49 in 10.0 mi Calm Calm - N/A   Clear
6:13 AM 35.4 °F 29.7 °F 80% 30.49 in 10.0 mi Calm Calm - N/A   Clear
6:33 AM 34.7 °F 28.9 °F 79% 30.50 in 10.0 mi Calm Calm - N/A   Clear
6:53 AM 35.6 °F 29.1 °F 77% 30.50 in 10.0 mi Calm Calm - N/A   Clear
7:13 AM 33.4 °F 29.1 °F 84% 30.51 in 10.0 mi Calm Calm - N/A   Clear
7:33 AM 34.7 °F 29.7 °F 82% 30.52 in 10.0 mi Calm Calm - N/A   Clear
7:53 AM 35.4 °F 30.4 °F 82% 30.52 in 10.0 mi Calm Calm - N/A   Clear
8:13 AM 37.6 °F 30.7 °F 76% 30.52 in 10.0 mi Calm Calm - N/A   Clear
8:33 AM 38.5 °F 31.1 °F 75% 30.53 in 10.0 mi Calm Calm - N/A   Clear
8:53 AM 42.3 °F 31.3 °F 65% 30.54 in 10.0 mi Calm Calm - N/A   Clear
9:13 AM 44.6 °F 31.8 °F 61% 30.54 in 10.0 mi Calm Calm - N/A   Clear
9:33 AM 46.9 °F 31.8 °F 56% 30.54 in 10.0 mi Calm Calm - N/A   Clear
9:53 AM 49.5 °F 32.0 °F 51% 30.54 in 10.0 mi Calm Calm - N/A   Clear
10:13 AM 52.2 °F 31.8 °F 46% 30.54 in 10.0 mi Calm Calm - N/A   Clear
10:33 AM 54.3 °F 30.7 °F 41% 30.53 in 10.0 mi Calm Calm - N/A   Clear
10:53 AM 56.7 °F 29.3 °F 35% 30.53 in 10.0 mi Calm Calm - N/A   Clear
11:13 AM 59.2 °F 29.1 °F 32% 30.53 in 10.0 mi Calm Calm - N/A   Clear
11:33 AM 60.8 °F 27.7 °F 28% 30.52 in 10.0 mi Calm Calm - N/A   Clear
11:53 AM 62.6 °F 24.3 °F 23% 30.52 in 10.0 mi WSW 3.5 mph - N/A   Clear
12:13 PM 64.4 °F 20.3 °F 18% 30.52 in 10.0 mi Calm Calm - N/A   Clear
12:33 PM 66.0 °F 12.9 °F 13% 30.51 in 10.0 mi Calm Calm - N/A   Clear
12:53 PM 66.9 °F 12.0 °F 12% 30.50 in 10.0 mi SSW 3.5 mph - N/A   Clear
1:13 PM 67.8 °F 11.7 °F 11% 30.50 in 10.0 mi Calm Calm - N/A   Clear
1:33 PM 68.5 °F 11.8 °F 11% 30.49 in 10.0 mi Calm Calm - N/A   Clear
1:53 PM 70.2 °F 12.4 °F 11% 30.48 in 10.0 mi SW 3.5 mph - N/A   Clear
2:13 PM 70.2 °F 9.0 °F 9% 30.47 in 10.0 mi SE 5.8 mph - N/A   Clear
2:33 PM 72.0 °F 6.8 °F 8% 30.46 in 10.0 mi Calm Calm - N/A   Clear
2:53 PM 72.0 °F 5.9 °F 8% 30.46 in 10.0 mi West 4.6 mph - N/A   Clear
3:13 PM 72.7 °F 5.5 °F 7% 30.45 in 10.0 mi SW 3.5 mph - N/A   Clear
3:33 PM 72.9 °F 5.0 °F 7% 30.45 in 10.0 mi Calm Calm - N/A   Clear
3:53 PM 73.4 °F 6.4 °F 7% 30.44 in 10.0 mi SSW 5.8 mph - N/A   Clear
4:13 PM 73.6 °F 7.9 °F 8% 30.44 in 10.0 mi SW 5.8 mph - N/A   Clear
4:33 PM 73.4 °F 8.6 °F 8% 30.44 in 10.0 mi SW 6.9 mph - N/A   Clear
4:53 PM 73.0 °F 12.0 °F 10% 30.44 in 10.0 mi SW 4.6 mph - N/A   Clear
5:13 PM 72.9 °F 12.9 °F 10% 30.43 in 10.0 mi WSW 4.6 mph - N/A   Clear
5:33 PM 73.2 °F 11.8 °F 10% 30.44 in 10.0 mi WSW 9.2 mph - N/A   Clear
5:53 PM 71.2 °F 14.2 °F 11% 30.44 in 10.0 mi SW 10.4 mph - N/A   Clear
6:13 PM 70.7 °F 14.7 °F 12% 30.44 in 10.0 mi SW 11.5 mph - N/A   Clear
6:33 PM 69.3 °F 15.4 °F 13% 30.44 in 10.0 mi SW 6.9 mph - N/A   Clear
6:53 PM 65.8 °F 17.8 °F 16% 30.45 in 7.0 mi SW 3.5 mph - N/A   Clear
7:13 PM 64.8 °F 18.5 °F 17% 30.45 in 10.0 mi Calm Calm - N/A   Clear
7:33 PM 63.7 °F 19.2 °F 18% 30.46 in 10.0 mi Calm Calm - N/A   Clear
7:53 PM 60.1 °F 20.1 °F 21% 30.46 in 10.0 mi Calm Calm - N/A   Clear
8:13 PM 58.8 °F 21.2 °F 23% 30.47 in 10.0 mi ESE 3.5 mph - N/A   Clear
8:33 PM 57.4 °F 21.6 °F 25% 30.48 in 10.0 mi ESE 3.5 mph - N/A   Clear
8:53 PM 58.1 °F 21.2 °F 24% 30.48 in 10.0 mi East 4.6 mph - N/A   Clear
9:13 PM 56.1 °F 21.7 °F 26% 30.49 in 10.0 mi NW 3.5 mph - N/A   Clear
9:33 PM 55.4 °F 22.3 °F 28% 30.50 in 10.0 mi Calm Calm - N/A   Clear
9:53 PM 56.3 °F 20.8 °F 25% 30.50 in 10.0 mi Calm Calm - N/A   Clear
10:13 PM 55.4 °F 20.5 °F 26% 30.51 in 10.0 mi Calm Calm - N/A   Clear
10:33 PM 55.6 °F 20.3 °F 25% 30.51 in 10.0 mi Calm Calm - N/A   Clear
10:53 PM 50.7 °F 21.9 °F 32% 30.51 in 10.0 mi Calm Calm - N/A   Clear
11:13 PM 50.7 °F 22.1 °F 33% 30.51 in 10.0 mi Calm Calm - N/A   Clear
11:33 PM 49.8 °F 22.3 °F 34% 30.51 in 10.0 mi Calm Calm - N/A   Clear
11:53 PM 48.6 °F 21.9 °F 35% 30.51 in 10.0 mi Calm Calm - N/A   Clear